Вернуться в каталог

STARLINK-33917

АктивенСвязьVLEO
NORAD 64181·PAYLOAD·🇺🇸 United States

Запущен May 28, 2025 с Cape Canaveral Space Force Station

Loading…

Ближайшие Пролёты (ближайшие 24 часа)

TLE

СвежийSource: CelesTrak SupGP

Эпоха: Sep 15, 2026, 02:47 UTC

1 64181C 25113M   26258.11645833  .00012679  00000+0  37451-3 0  2581
2 64181  53.1592 290.5249 0001087  87.8799  54.5400 15.34392254    19

Отслеживайте STARLINK-33917 в реальном времени с AllMySat

Download on the App Store